Brownsville, TX

12:06 AM CST on December 11, 2017 (GMT -0600)
Brownsville-South Padre I International

Weather History for KBRO - May, 2014

Change the Weather History Date:

Tuesday, May 13, 2014

  Actual Average Record
Temperature  
Mean Temperature 73 °F 80 °F  
Max Temperature 80 °F 88 °F 96 °F (1896)
Min Temperature 65 °F 72 °F 58 °F (1960)
Degree Days  
Heating Degree Days 0 0  
Month to date heating degree days 0 0  
Since 1 July heating degree days 824 554  
Cooling Degree Days 8 15  
Month to date cooling degree days 145 180  
Year to date cooling degree days 679 797  
Growing Degree Days 23 (Base 50)    
Moisture  
Dew Point 71 °F    
Average Humidity 86    
Maximum Humidity 97    
Minimum Humidity 74    
Precipitation  
Precipitation 1.18 in 0.08 in 4.84 in (1939)
Month to date precipitation 2.09 1.01  
Year to date precipitation 4.59 6.13  
Sea Level Pressure  
Sea Level Pressure 29.91 in    
Wind  
Wind Speed 13 mph (ENE)    
Max Wind Speed 31 mph    
Max Gust Speed 41 mph    
Visibility 9 miles    
Events Fog , Rain , Thunderstorm    
T = Trace of Precipitation, MM = Missing Value Source: NWS Daily Summary

Daily Weather History Graph

Daily Weather History Graph

Search for Another Location

Airport or City:

Trip Planner

Search our weather history database for the weather conditions in past years. The results will help you decide how hot, cold, wet, or windy it might be!

Date:

Astronomy

May. 13, 2014 Rise Set
Actual Time 6:44 AM CDT 8:07 PM CDT
Civil Twilight 6:19 AM CDT 8:32 PM CDT
Nautical Twilight 5:50 AM CDT 9:02 PM CDT
Astronomical Twilight 5:19 AM CDT 9:32 PM CDT
Moon 7:16 PM CDT (5/13) 5:53 AM CDT (5/13)
Length of Visible Light 14h 12m
Length of Day
13h 22m
Waxing Gibbous, 99% of the Moon is Illuminated
May 13
Waxing Gibbous
May 14
Full
May 21
Last Quarter
May 28
New
Jun 5
First Quarter

Hourly Weather History & Observations

Time (CDT) Temp. Dew Point Humidity Pressure Visibility Wind Dir Wind Speed Gust Speed Precip Events Conditions
12:00 AM 78.8 °F 75.2 °F 89% 29.86 in 10.0 mi SE 12.7 mph - 0.00 in Rain Light Rain
12:33 AM 77.0 °F 75.2 °F 94% 29.83 in 10.0 mi SE 11.5 mph - 0.00 in   Mostly Cloudy
12:40 AM 77.0 °F 75.2 °F 94% 29.83 in 10.0 mi SE 11.5 mph - 0.00 in   Overcast
12:53 AM 77.0 °F 75.9 °F 96% 29.81 in 10.0 mi SE 13.8 mph - 0.00 in   Overcast
1:53 AM 77.0 °F 75.9 °F 96% 29.81 in 10.0 mi SSE 17.3 mph - N/A   Overcast
2:28 AM 77.0 °F 75.2 °F 94% 29.78 in 10.0 mi SE 15.0 mph 24.2 mph N/A   Mostly Cloudy
2:39 AM 77.0 °F 75.2 °F 94% 29.78 in 10.0 mi ESE 13.8 mph - N/A   Overcast
2:53 AM 77.0 °F 75.9 °F 96% 29.78 in 10.0 mi SE 17.3 mph 23.0 mph N/A   Mostly Cloudy
3:50 AM 77.0 °F 75.2 °F 94% 29.80 in 10.0 mi SSE 9.2 mph - N/A   Overcast
3:53 AM 77.0 °F 75.9 °F 96% 29.80 in 10.0 mi SSE 8.1 mph - N/A   Overcast
4:04 AM 77.0 °F 75.2 °F 94% 29.80 in 10.0 mi SE 9.2 mph - N/A   Overcast
4:28 AM 77.0 °F 75.2 °F 94% 29.80 in 10.0 mi SE 12.7 mph - N/A   Overcast
4:53 AM 77.0 °F 75.9 °F 96% 29.81 in 10.0 mi SE 8.1 mph - N/A   Overcast
5:35 AM 77.0 °F 75.2 °F 94% 29.82 in 10.0 mi ESE 8.1 mph - N/A   Overcast
5:45 AM 77.0 °F 75.2 °F 94% 29.82 in 10.0 mi East 8.1 mph - N/A   Overcast
5:53 AM 77.0 °F 75.9 °F 96% 29.83 in 10.0 mi East 8.1 mph - N/A   Overcast
6:04 AM 77.0 °F 75.2 °F 94% 29.82 in 10.0 mi East 9.2 mph - N/A   Overcast
6:09 AM 77.0 °F 75.2 °F 94% 29.83 in 10.0 mi East 9.2 mph - N/A   Overcast
6:53 AM 77.0 °F 75.0 °F 94% 29.83 in 10.0 mi East 10.4 mph - N/A   Overcast
7:53 AM 78.8 °F 75.2 °F 89% 29.88 in 10.0 mi ESE 8.1 mph - N/A   Overcast
8:30 AM 78.8 °F 75.2 °F 89% 29.91 in 10.0 mi East 6.9 mph - N/A   Overcast
8:53 AM 78.1 °F 75.0 °F 90% 29.90 in 10.0 mi East 15.0 mph - N/A   Overcast
9:53 AM 71.1 °F 68.0 °F 90% 29.94 in 5.0 mi NE 27.6 mph 40.3 mph 0.00 in Rain Light Rain
10:53 AM 69.8 °F 68.0 °F 94% 30.00 in 4.0 mi NNE 6.9 mph 17.3 mph N/A Rain , Thunderstorm Light Thunderstorms and Rain
11:00 AM 69.8 °F 68.0 °F 94% 29.98 in 1.0 mi NE 19.6 mph 27.6 mph 0.34 in Fog , Rain , Thunderstorm Heavy Thunderstorms and Rain
11:07 AM 69.8 °F 69.8 °F 100% 29.99 in 0.5 mi NE 15.0 mph 27.6 mph 0.66 in Fog , Rain , Thunderstorm Heavy Thunderstorms and Rain
11:12 AM 68.0 °F 68.0 °F 100% 29.99 in 2.5 mi NE 19.6 mph 25.3 mph 0.76 in Rain , Thunderstorm Heavy Thunderstorms and Rain
11:19 AM 69.8 °F 68.0 °F 94% 29.94 in 2.0 mi NE 23.0 mph 31.1 mph 0.82 in Rain , Thunderstorm Heavy Thunderstorms and Rain
11:34 AM 69.8 °F 69.8 °F 100% 29.94 in 2.0 mi NE 23.0 mph 35.7 mph 0.96 in Rain , Thunderstorm Heavy Thunderstorms and Rain
11:42 AM 69.8 °F 69.8 °F 100% 29.94 in 2.0 mi NE 18.4 mph 35.7 mph 0.98 in Rain Rain
11:53 AM 69.1 °F 68.0 °F 96% 29.93 in 4.0 mi NE 21.9 mph 29.9 mph 0.99 in Rain Light Rain
12:25 PM 69.8 °F 68.0 °F 94% 29.93 in 10.0 mi ENE 23.0 mph 35.7 mph 0.03 in Rain , Thunderstorm Rain
12:40 PM 69.8 °F 68.0 °F 94% 29.94 in 10.0 mi ENE 17.3 mph 31.1 mph 0.05 in Rain Rain
12:53 PM 69.1 °F 68.0 °F 96% 29.93 in 10.0 mi ENE 17.3 mph 29.9 mph 0.06 in Rain Light Rain
1:05 PM 69.8 °F 68.0 °F 94% 29.93 in 10.0 mi ENE 19.6 mph 26.5 mph 0.01 in Rain , Thunderstorm Thunderstorms and Rain
1:24 PM 69.8 °F 68.0 °F 94% 29.92 in 10.0 mi ENE 19.6 mph 32.2 mph 0.02 in Rain Light Rain
1:53 PM 69.1 °F 68.0 °F 96% 29.93 in 10.0 mi NE 15.0 mph 24.2 mph 0.03 in Rain Light Rain
2:18 PM 69.8 °F 68.0 °F 94% 29.96 in 10.0 mi NNE 8.1 mph 17.3 mph 0.00 in Thunderstorm Mostly Cloudy
2:39 PM 71.6 °F 69.8 °F 94% 29.98 in 10.0 mi North 9.2 mph - 0.00 in   Overcast
2:53 PM 72.0 °F 70.0 °F 93% 29.96 in 10.0 mi NNE 11.5 mph - 0.00 in   Overcast
3:22 PM 71.6 °F 69.8 °F 94% 29.88 in 10.0 mi East 19.6 mph 26.5 mph N/A   Mostly Cloudy
3:43 PM 71.6 °F 69.8 °F 94% 29.91 in 10.0 mi NE 9.2 mph - 0.00 in   Mostly Cloudy
3:53 PM 73.0 °F 70.0 °F 90% 29.92 in 10.0 mi NE 8.1 mph - 0.00 in   Mostly Cloudy
4:50 PM 75.2 °F 69.8 °F 83% 29.96 in 10.0 mi NNW 10.4 mph - N/A   Overcast
4:53 PM 73.9 °F 70.0 °F 87% 29.96 in 10.0 mi North 11.5 mph 17.3 mph N/A   Overcast
5:53 PM 73.9 °F 68.0 °F 82% 29.95 in 10.0 mi North 6.9 mph - 0.00 in   Overcast
6:53 PM 75.0 °F 66.9 °F 76% 29.96 in 10.0 mi North 12.7 mph 20.7 mph N/A   Mostly Cloudy
7:53 PM 72.0 °F 68.0 °F 87% 29.99 in 10.0 mi North 9.2 mph - N/A   Overcast
8:13 PM 71.6 °F 68.0 °F 88% 30.01 in 10.0 mi North 9.2 mph - N/A   Overcast
8:38 PM 71.6 °F 68.0 °F 88% 30.03 in 10.0 mi North 6.9 mph - N/A   Scattered Clouds
8:53 PM 72.0 °F 68.0 °F 87% 30.03 in 10.0 mi North 8.1 mph - N/A   Mostly Cloudy
9:53 PM 66.9 °F 63.0 °F 87% 30.07 in 10.0 mi NNW 12.7 mph 21.9 mph N/A   Overcast
10:53 PM 66.0 °F 61.0 °F 84% 30.10 in 10.0 mi NNW 12.7 mph 21.9 mph N/A   Overcast
11:01 PM 66.2 °F 60.8 °F 83% 30.10 in 10.0 mi NNW 15.0 mph 23.0 mph N/A   Overcast
11:35 PM 66.2 °F 60.8 °F 83% 30.12 in 10.0 mi NNW 11.5 mph - N/A   Overcast
11:53 PM 66.0 °F 60.1 °F 81% 30.12 in 10.0 mi NNW 12.7 mph - N/A   Overcast